EW7827 Weather Reports


time (UTC)temp
C
wind
direction
speed
KPH
gust
KPH
rain 1hr
cm
rain 24hr
cm
rain mn
cm
humidity
%
barometer
mb
20260505053521 18 0 9.7 19.3 0.00 0.00 0.00 57 1006.6
20260505052521 18 23 11.3 22.5 0.00 0.00 0.00 59 1006.7
20260505051520 20 0 11.3 27.4 0.00 0.00 0.00 50 1006.6
20260505050521 21 0 12.9 27.4 0.00 0.00 0.00 49 1006.2
20260505041522 21 203 4.8 11.3 0.00 0.00 0.00 71 1005.3
20260505040522 21 180 4.8 11.3 0.00 0.00 0.00 71 1005.5
20260505035521 21 135 3.2 8.0 0.00 0.00 0.00 71 1005.5
20260505034542 21 203 4.8 12.9 0.00 0.00 0.00 70 1005.4
20260505033522 21 158 3.2 8.0 0.00 0.00 0.00 69 1005.5
20260505032522 22 248 3.2 8.0 0.00 0.00 0.00 68 1005.5
20260505031521 22 180 3.2 8.0 0.00 0.00 0.00 67 1005.4
20260505030522 22 158 3.2 8.0 0.00 0.00 0.00 65 1005.2
20260505025522 22 203 3.2 4.8 0.00 0.00 0.00 64 1005.1
20260505024522 22 180 3.2 4.8 0.00 0.00 0.00 64 1005.0
20260505023521 22 203 3.2 8.0 0.00 0.00 0.00 64 1004.8
20260505022521 22 225 3.2 8.0 0.00 0.00 0.00 64 1004.5
20260505021542 22 180 1.6 3.2 0.00 0.00 0.00 63 1004.4
20260505020522 22 180 1.6 3.2 0.00 0.00 0.00 62 1004.3
20260505015521 22 0.0 1.6 0.00 0.00 0.00 60 1004.3
20260505014521 22 0.0 0.0 0.00 0.00 0.00 58 1004.2
20260505013521 23 0.0 0.0 0.00 0.00 0.00 58 1004.2
20260505012522 23 0.0 1.6 0.00 0.00 0.00 56 1003.9
20260505011522 24 0.0 1.6 0.00 0.00 0.00 53 1003.8
20260505010542 25 0.0 0.0 0.00 0.00 0.00 51 1003.6
20260505005521 25 0.0 0.0 0.00 0.00 0.00 50 1003.5
20260505004521 25 0.0 1.6 0.00 0.00 0.00 49 1003.4
20260505003521 26 180 1.6 3.2 0.00 0.00 0.00 48 1003.3
20260505002521 26 0.0 1.6 0.00 0.00 0.00 48 1003.4
20260505001521 26 0.0 3.2 0.00 0.00 0.00 47 1003.3
20260505000521 26 0.0 3.2 0.00 0.00 0.00 47 1003.4
20260504235521 26 203 1.6 3.2 0.00 0.00 0.00 47 1003.4
20260504234622 26 0 1.6 4.8 0.00 0.00 0.00 46 1003.3
20260504233521 26 203 1.6 3.2 0.00 0.00 0.00 45 1003.4
20260504232641 27 225 1.6 4.8 0.00 0.00 0.00 44 1003.4
20260504231541 27 180 1.6 9.7 0.00 0.00 0.00 43 1003.5
20260504230541 27 203 3.2 8.0 0.00 0.00 0.00 44 1003.5
20260504225521 27 203 4.8 14.5 0.00 0.00 0.00 44 1003.5
20260504224522 27 203 3.2 9.7 0.00 0.00 0.00 43 1003.5
20260504223521 27 225 3.2 9.7 0.00 0.00 0.00 43 1003.5
20260504222521 27 203 4.8 9.7 0.00 0.00 0.00 42 1003.5
20260504221521 27 180 3.2 11.3 0.00 0.00 0.00 44 1003.5
20260504220541 27 203 3.2 11.3 0.00 0.00 0.00 46 1003.7
20260504215541 27 203 1.6 3.2 0.00 0.00 0.00 45 1003.7
20260504214541 27 270 3.2 8.0 0.00 0.00 0.00 43 1003.9
20260504213521 27 203 6.4 16.1 0.00 0.00 0.00 43 1004.1
20260504212521 27 203 6.4 14.5 0.00 0.00 0.00 41 1004.1
20260504211521 26 203 6.4 17.7 0.00 0.00 0.00 44 1004.0
20260504210521 26 203 6.4 16.1 0.00 0.00 0.00 43 1004.1
20260504205521 27 225 6.4 19.3 0.00 0.00 0.00 43 1004.2
20260504204521 27 203 8.0 14.5 0.00 0.00 0.00 42 1004.3
20260504203541 27 158 8.0 19.3 0.00 0.00 0.00 42 1004.4
20260504202521 28 203 6.4 16.1 0.00 0.00 0.00 41 1004.4
20260504201521 28 203 6.4 14.5 0.00 0.00 0.00 44 1004.4
20260504200521 27 225 6.4 14.5 0.00 0.00 0.00 44 1004.5
20260504195600 27 225 4.8 14.5 0.00 0.00 0.00 43 1004.6
20260504194521 27 180 6.4 16.1 0.00 0.00 0.00 45 1004.4
20260504193541 27 180 6.4 16.1 0.00 0.00 0.00 45 1004.5
20260504192521 27 203 6.4 16.1 0.00 0.00 0.00 45 1004.5
20260504191520 27 203 6.4 14.5 0.00 0.00 0.00 45 1004.5
20260504190541 27 203 9.7 19.3 0.00 0.00 0.00 43 1004.6
20260504185521 27 225 6.4 16.1 0.00 0.00 0.00 45 1004.6
20260504184621 26 293 4.8 11.3 0.00 0.00 0.00 44 1004.7
20260504183520 26 158 4.8 12.9 0.00 0.00 0.00 46 1004.7
20260504182521 26 180 8.0 16.1 0.00 0.00 0.00 44 1004.8
20260504181541 26 225 8.0 20.9 0.00 0.00 0.00 48 1004.8
20260504180520 26 270 4.8 9.7 0.00 0.00 0.00 44 1004.9
20260504175521 25 338 4.8 14.5 0.00 0.00 0.00 46 1005.0
20260504174522 25 180 8.0 27.4 0.00 0.00 0.00 46 1005.1
20260504173541 25 180 3.2 9.7 0.00 0.00 0.00 46 1005.0
20260504172521 25 270 4.8 19.3 0.00 0.00 0.00 46 1005.1
20260504171520 25 203 6.4 16.1 0.00 0.00 0.00 47 1005.3
20260504170520 24 270 4.8 12.9 0.00 0.00 0.00 46 1005.3
20260504150522 21 225 9.7 25.7 0.00 0.00 0.00 53 1005.6
20260504140520 19 203 8.0 20.9 0.00 0.00 0.00 56 1005.8
20260504130522 18 203 6.4 14.5 0.00 0.00 0.00 57 1005.6
20260504110522 17 203 3.2 12.9 0.00 0.00 0.00 56 1006.5
20260504100541 18 203 4.8 12.9 0.00 0.00 0.00 51 1006.7
20260504081521 18 180 6.4 17.7 0.00 0.00 0.00 52 1007.3
20260504080521 18 158 4.8 9.7 0.00 0.00 0.00 53 1007.5